User: anonymous   Login
Location: Allison Elementary School
(34.0784°N, 117.7317°W)
Time: 11:31:42
(UTC+00:00)
Language:

Cosmos 1328 Rocket - Orbit

View from above orbital plane
View from above orbital plane
View from above satellite
View from above satellite

Ground track
Ground track

The orbit data is extracted from the following two-line orbital elements,

1 12988U 81117B   20029.17215861  .00000049  00000-0  29665-5 0  9996
2 12988  82.5230 256.5628 0016654 291.0387 189.5613 14.84756084 61665
Epoch (UTC): 29 January 2020 04:07:54
Eccentricity: 0.0016654
inclination: 82.5230°
perigee height: 603 km
apogee height: 626 km
right ascension of ascending node: 256.5628°
argument of perigee: 291.0387°
revolutions per day: 14.84756084
mean anomaly at epoch: 189.5613°
orbit number at epoch: 6166

The dashed part of the orbit path shows where the satellite is in the earth's shadow,  

DLR